Weather History for KS32 - October, 2012

Change the Weather History Date:

Thursday, October 11, 2012

  Actual Average (KJMS) Record (KJMS)
Temperature  
Mean Temperature 32 °F 46 °F  
Max Temperature 42 °F 59 °F 85 °F (1934)
Min Temperature 19 °F 35 °F 9 °F (1935)
Degree Days  
Heating Degree Days 34 19  
Month to date heating degree days 181  
Since 1 July heating degree days 499  
Cooling Degree Days 0 0  
Month to date cooling degree days 0  
Year to date cooling degree days 445  
Moisture  
Dew Point 26 °F    
Average Humidity 77    
Maximum Humidity 100    
Minimum Humidity 39    
Precipitation  
Precipitation 0.00 in 0.05 in 0.89 in (1973)
Month to date precipitation 0.62  
Year to date precipitation 16.81  
Sea Level Pressure  
Sea Level Pressure 30.20 in    
Wind  
Wind Speed 10 mph (NNW)    
Max Wind Speed 20 mph    
Max Gust Speed 28 mph    
Visibility 10 miles    
Events      
T = Trace of Precipitation, MM = Missing Value Source: NWS Daily Summary

Daily Weather History Graph

Daily Weather History Graph

Search for Another Location

Airport or City:

Trip Planner

Search our weather history database for the weather conditions in past years. The results will help you decide how hot, cold, wet, or windy it might be!

Date:

Astronomy

Oct. 11, 2012 Rise Set
Actual Time 7:46 AM CDT 6:51 PM CDT
Civil Twilight 7:15 AM CDT 7:21 PM CDT
Nautical Twilight 6:39 AM CDT 7:57 PM CDT
Astronomical Twilight 6:04 AM CDT 8:32 PM CDT
Moon 3:09 AM CDT (10/11) 4:41 PM CDT (10/11)
Length of Visible Light 12h 06m
Length of Day
11h 05m
Waning Crescent, 18% of the Moon is Illuminated
Oct 11
Waning Crescent
Oct 15
New
Oct 21
First Quarter
Oct 29
Full
Nov 6
Last Quarter

Hourly Weather History & Observations

Time (CDT) Temp. Windchill Dew Point Humidity Pressure Visibility Wind Dir Wind Speed Gust Speed Precip Events Conditions
12:15 AM 35.6 °F 29.9 °F 35.6 °F 100% 29.96 in 10.0 mi NNW 6.9 mph - N/A   Clear
12:35 AM 35.6 °F 28.6 °F 35.6 °F 100% 29.96 in 10.0 mi NNW 9.2 mph - N/A   Clear
12:55 AM 35.6 °F 28.6 °F 35.6 °F 100% 29.96 in 10.0 mi NNW 9.2 mph - N/A   Clear
1:15 AM 35.6 °F 28.0 °F 35.6 °F 100% 29.97 in 10.0 mi NNW 10.4 mph - N/A   Partly Cloudy
1:35 AM 35.6 °F 28.0 °F 35.6 °F 100% 29.98 in 10.0 mi NNW 10.4 mph - N/A   Clear
1:55 AM 35.6 °F 27.5 °F 35.6 °F 100% 29.99 in 10.0 mi NW 11.5 mph - N/A   Clear
2:15 AM 35.6 °F 28.0 °F 35.6 °F 100% 30.00 in 10.0 mi NW 10.4 mph - N/A   Mostly Cloudy
2:35 AM 35.6 °F 27.1 °F 35.6 °F 100% 30.00 in 10.0 mi NNW 12.7 mph - N/A   Mostly Cloudy
2:55 AM 35.6 °F 26.6 °F 35.6 °F 100% 30.02 in 10.0 mi NNW 13.8 mph - N/A   Mostly Cloudy
3:15 AM 35.6 °F 27.5 °F 33.8 °F 93% 30.03 in 10.0 mi NNW 11.5 mph - N/A   Partly Cloudy
3:55 AM 32.0 °F 23.6 °F 32.0 °F 100% 30.04 in 10.0 mi NNW 10.4 mph - N/A   Clear
4:15 AM 32.0 °F 23.0 °F 32.0 °F 100% 30.05 in 10.0 mi NNW 11.5 mph - N/A   Clear
4:35 AM 32.0 °F 23.0 °F 32.0 °F 100% 30.06 in 10.0 mi NNW 11.5 mph - N/A   Clear
4:55 AM 32.0 °F 23.0 °F 32.0 °F 100% 30.07 in 10.0 mi NNW 11.5 mph - N/A   Clear
5:35 AM 32.0 °F 23.6 °F 32.0 °F 100% 30.10 in 10.0 mi North 10.4 mph - N/A   Clear
5:55 AM 32.0 °F 23.0 °F 32.0 °F 100% 30.11 in 10.0 mi NNW 11.5 mph - N/A   Clear
6:15 AM 32.0 °F 23.0 °F 32.0 °F 100% 30.12 in 10.0 mi NNW 11.5 mph - N/A   Clear
6:35 AM 32.0 °F 23.0 °F 30.2 °F 93% 30.12 in 10.0 mi NNW 11.5 mph - N/A   Clear
6:55 AM 32.0 °F 23.6 °F 30.2 °F 93% 30.14 in 10.0 mi NNW 10.4 mph - N/A   Clear
7:15 AM 32.0 °F 23.6 °F 28.4 °F 87% 30.15 in 10.0 mi NNW 10.4 mph - N/A   Clear
7:55 AM 30.2 °F 20.8 °F 28.4 °F 93% 30.17 in 10.0 mi NNW 11.5 mph - N/A   Clear
8:15 AM 30.2 °F 20.8 °F 28.4 °F 93% 30.18 in 10.0 mi NNW 11.5 mph - N/A   Clear
8:35 AM 32.0 °F 23.6 °F 28.4 °F 87% 30.19 in 10.0 mi NNW 10.4 mph - N/A   Clear
8:55 AM 32.0 °F 23.0 °F 28.4 °F 87% 30.20 in 10.0 mi NNW 11.5 mph - N/A   Clear
9:15 AM 32.0 °F 23.0 °F 28.4 °F 87% 30.21 in 10.0 mi NW 11.5 mph - N/A   Clear
9:35 AM 32.0 °F 23.6 °F 28.4 °F 87% 30.22 in 10.0 mi NNW 10.4 mph - N/A   Clear
9:55 AM 32.0 °F 23.0 °F 28.4 °F 87% 30.23 in 10.0 mi NNW 11.5 mph - N/A   Clear
10:15 AM 33.8 °F 24.8 °F 28.4 °F 81% 30.24 in 10.0 mi NNW 12.7 mph 18.4 mph N/A   Clear
10:35 AM 33.8 °F 29.6 °F 26.6 °F 75% 30.24 in 10.0 mi North 4.6 mph - N/A   Clear
11:15 AM 35.6 °F 31.7 °F 26.6 °F 70% 30.26 in 10.0 mi North 4.6 mph - N/A   Clear
11:35 AM 37.4 °F 27.5 °F 24.8 °F 60% 30.27 in 10.0 mi NNW 18.4 mph 24.2 mph N/A   Clear
11:55 AM 37.4 °F 27.2 °F 23.0 °F 56% 30.27 in 10.0 mi North 19.6 mph 27.6 mph N/A   Clear
12:15 PM 39.2 °F 29.8 °F 21.2 °F 49% 30.27 in 10.0 mi NNW 18.4 mph 26.5 mph N/A   Clear
12:55 PM 39.2 °F 31.2 °F 23.0 °F 52% 30.28 in 10.0 mi NNW 13.8 mph 21.9 mph N/A   Scattered Clouds
1:15 PM 41.0 °F 32.2 °F 23.0 °F 49% 30.28 in 10.0 mi North 18.4 mph 24.2 mph N/A   Scattered Clouds
1:35 PM 41.0 °F 32.5 °F 21.2 °F 45% 30.28 in 10.0 mi NNW 17.3 mph 23.0 mph N/A   Partly Cloudy
1:55 PM 41.0 °F 32.2 °F 19.4 °F 42% 30.28 in 10.0 mi NW 18.4 mph 24.2 mph N/A   Clear
2:15 PM 41.0 °F 32.5 °F 21.2 °F 45% 30.27 in 10.0 mi NW 17.3 mph 23.0 mph N/A   Clear
3:15 PM 41.0 °F 32.8 °F 21.2 °F 45% 30.28 in 10.0 mi NW 16.1 mph 20.7 mph N/A   Partly Cloudy
3:55 PM 42.8 °F 35.1 °F 21.2 °F 42% 30.29 in 10.0 mi NNW 16.1 mph 19.6 mph N/A   Partly Cloudy
4:15 PM 41.0 °F 33.5 °F 21.2 °F 45% 30.29 in 10.0 mi NNW 13.8 mph 21.9 mph N/A   Scattered Clouds
4:35 PM 42.8 °F 34.8 °F 19.4 °F 39% 30.29 in 10.0 mi NNW 17.3 mph 20.7 mph N/A   Mostly Cloudy
4:55 PM 41.0 °F 34.7 °F 19.4 °F 42% 30.30 in 10.0 mi NW 10.4 mph - N/A   Scattered Clouds
5:15 PM 41.0 °F 33.5 °F 19.4 °F 42% 30.30 in 10.0 mi NNW 13.8 mph - N/A   Partly Cloudy
6:15 PM 39.2 °F 32.5 °F 19.4 °F 45% 30.31 in 10.0 mi NNW 10.4 mph - N/A   Clear
6:35 PM 37.4 °F 32.8 °F 19.4 °F 48% 30.32 in 10.0 mi NNW 5.8 mph - N/A   Clear
6:55 PM 35.6 °F 30.7 °F 23.0 °F 60% 30.31 in 10.0 mi North 5.8 mph - N/A   Clear
7:15 PM 33.8 °F 29.6 °F 23.0 °F 65% 30.32 in 10.0 mi NNW 4.6 mph - N/A   Clear
7:35 PM 32.0 °F 28.7 °F 24.8 °F 75% 30.33 in 10.0 mi NNW 3.5 mph - N/A   Clear
7:55 PM 32.0 °F 27.5 °F 19.4 °F 60% 30.33 in 10.0 mi NNW 4.6 mph - N/A   Clear
8:15 PM 32.0 °F - 21.2 °F 64% 30.33 in 10.0 mi Calm Calm - N/A   Clear
8:35 PM 24.8 °F - 17.6 °F 74% 30.33 in 10.0 mi Calm Calm - N/A   Clear
8:55 PM 24.8 °F 20.5 °F 17.6 °F 74% 30.34 in 10.0 mi West 3.5 mph - N/A   Clear
9:15 PM 21.2 °F 16.4 °F 17.6 °F 86% 30.34 in 10.0 mi WSW 3.5 mph - N/A   Clear
9:35 PM 23.0 °F - 17.6 °F 80% 30.34 in 10.0 mi Calm Calm - N/A   Clear
9:55 PM 23.0 °F - 17.6 °F 80% 30.35 in 10.0 mi Calm Calm - N/A   Clear
10:15 PM 24.8 °F - 19.4 °F 80% 30.35 in 10.0 mi Calm Calm - N/A   Clear
10:55 PM 19.4 °F 12.8 °F 17.6 °F 93% 30.36 in 10.0 mi SW 4.6 mph - N/A   Clear